Home > Weather > Selkirk > Past weeks

Flag for Canada Past Weather in Selkirk, Manitoba, Canada — Yesterday and Last 2 Weeks

Now
70 °F

Mild.


Feels Like: 67 °F
Forecast: 62 / 74 °F
Wind: 5 mph from Southwest

Location: Winnipeg The Forks Man

Current Time: Jul 24, 2016 at 12:10:13 AM

Latest Report: Jul 23, 2016 at 11:00 PM


Visibility: N/A

Pressure: 29.63 "Hg

Humidity: 90%

Dew Point: 67 °F

Location of SelkirkLocation

Past Weather in Selkirk — Graph

°F

Selkirk Temperature Yesterday

Maximum temperature yesterday: 76 °F (at 6:00 PM)
Minimum temperature yesterday: 65 °F (at 11:00 AM)
Average temperature yesterday: 69 °F

High & Low Weather Summary for the Past Weeks

 TemperatureHumidityPressure
High89 °F (Jul 20, 6:00 PM)98% (Jul 13, 5:00 AM)30.17 "Hg (Jul 13, 5:00 AM)
Low53 °F (Jul 15, 5:00 AM)35% (Jul 15, 4:00 PM)29.26 "Hg (Jul 12, 11:00 PM)
Average70 °F70%29.82 "Hg
* Reported Jul 8 11:00 PM — Jul 23 11:00 PM, Selkirk, Weather by CustomWeather, © 2016

Note: Actual official high and low records may vary slightly from our data, if they occured in-between our weather recording intervals... More about our weather records

Advertising

Selkirk Weather History for the Previous 24 Hours

Scroll right to see more
 ConditionsComfort  
Time TempWeatherWind HumidityBarometerVisibility
11:00 PM
Sat, Jul 23
70 °FMild.5 mph90%29.63 "HgN/A
10:00 PM70 °FMild.1 mph91%29.64 "HgN/A
9:00 PM71 °FMild.3 mph88%29.66 "HgN/A
8:00 PM73 °FMild.5 mph75%29.66 "HgN/A
7:00 PM74 °FMild.5 mph70%29.66 "HgN/A
6:00 PM76 °FMild.2 mph71%29.69 "HgN/A
5:00 PM75 °FMild.3 mph69%29.72 "HgN/A
4:00 PM75 °FMild.5 mph69%29.71 "HgN/A
3:00 PM71 °FMild.5 mph78%29.72 "HgN/A
2:00 PM68 °FMild.5 mph87%29.76 "HgN/A
1:00 PM67 °FMild.5 mph90%29.78 "HgN/A
12:00 PM65 °FMild.3 mph92%29.81 "HgN/A
11:00 AM65 °FMild.5 mph90%29.84 "HgN/A
10:00 AM66 °FMild.2 mph85%29.87 "HgN/A
9:00 AM68 °FMild.1 mph66%29.87 "HgN/A
8:00 AM67 °FMild.5 mph69%29.85 "HgN/A
7:00 AM67 °FMild.3 mph73%29.86 "HgN/A
6:00 AM66 °FMild.3 mph74%29.88 "HgN/A
5:00 AM67 °FMild.2 mph73%29.90 "HgN/A
4:00 AM67 °FMild.1 mph68%29.92 "HgN/A
3:00 AM68 °FMild.1 mph72%29.94 "HgN/A
2:00 AM69 °FMild.1 mph72%29.96 "HgN/A
1:00 AM69 °FMild.1 mph76%29.95 "HgN/A
12:00 AM71 °FMild.1 mph67%29.97 "HgN/A
Weather by CustomWeather, © 2016

See weather overviewHow to use our weather pages